Погода в Коувола

Финляндия     60°52′14″N   26°42′11″E
темп.,
°C
ветер,
м/с
пор.,
м/с
влажн.,
%
обл.,
%
осадки,
мм/ч
давл.,
гПа
погр.,
м
2 декабря, чт
чт223:00−10з259646 0.0 993109
02:00−11з119878 0.0 99416
05:00−11з009862 0.0 99410
08:00−11всв1196100 0.0 99420
11:00−8всв1384100 0.0 99597
14:00−8св268491 0.0 994186
17:00−9св3990100 0.0 995253
20:00−9св399296 0.0 995251
3 декабря, пт
пт323:00−9св3993100 0.0 996251
02:00−9ссв399493 0.0 996250
05:00−8св3109499 0.0 996349
08:00−8ссв3995100 0.0 996337
11:00−6св4989100 0.0 997563
14:00−6св41086100 0.0 997662
17:00−7ссв41087100 0.0 998493
20:00−7ссв31090100 0.0 999435
4 декабря, сб
сб423:00−7ссв3993100 0.1 1000435
02:00−8с389194 0.1 1001487
05:00−8с389195 0.1 1003465
08:00−9с389185 0.1 1005367
11:00−9с378991 0.1 1007360
14:00−9с378990 0.1 1008359
17:00−10ссв259395 0.1 1010236
20:00−10св139697 0.2 1013156
5 декабря, вс
вс523:00−11ссв149764 0.0 101598
02:00−12св279558 0.1 1016196
05:00−12св289563 0.0 1017257
08:00−11св399432 0.0 1019311
11:00−10всв398852 0.0 1020431
14:00−10всв39877 0.0 1021382
17:00−11св3109117 0.0 1022378
20:00−11всв4119020 0.0 1022415
6 декабря, пн
пн623:00−11всв4108991 0.0 1022452
02:00−10всв4109080 0.0 1022465
05:00−10св3109299 0.1 1021525
08:00−8всв3992100 0.5 1021618
11:00−7всв3892100 0.6 1021553
14:00−7всв3793100 1.2 1020478
17:00−7св2694100 0.4 1020325
20:00−7св2694100 0.8 1020255